RADUGA-1M 1 [-]

Last updated on Oct. 27, 2020, 5:53 a.m. UTC

1 32373U 07058A   20300.39859552 -.00000118  00000-0  00000-0 0  9990
2 32373   5.5930  67.8057 0001782 312.7029  76.7431  0.99394409 31927
UTC
Height (km)
Latitude
Longitude
Inclination
Orbital Period
UTC large
Height (km)
Speed (km/s)
/
Latitude / Longitude
Inclination (degrees)
Orbital Period (minutes)
Azimuth
Elevation
Range (km)
Doppler Factor
iOS Compass Heading
iOS Angle

Next 30 passes for location: Hong Kong

Rise time Rise Azimuth (degrees) Set time Set Azimuth (degrees) Duration Max altitude (degrees)

No matching passes for this satellites